[[{"header":{"parameterUnit":"m.s-1","parameterCategory":1,"la1":30.2991,"la2":30.254,"lo1":-89.0895,"lo2":-89.0444,"dy":0.0017,"dx":0.0017,"nx":28,"ny":28,"refTime":"2024-07-19T21:00:00:Z","depth":0,"parameterNumber":2,"parameterNumberName":"U-component_of_WINDS"},"data":[0,0,0,0,0,0,0,0,0,0,0,0,0,0,0,0,0,0,0,0,0,0,0,0,0,0,0,0,0,0,0,0,0,0,0,0,0,0,0,0,0,0,0,0,0,0,0,0,0,0,0,0,0,0,0,0,0,0,2.2325,2.2325,0,2.2392,2.2392,2.2393,2.2354,2.2352,2.2351,2.2349,2.2416,2.2419,2.2423,0,0,0,0,0,0,0,0,0,0,0,0,0,2.2159,2.2162,2.2325,2.2325,2.2326,2.2392,2.2393,2.2393,2.2355,2.2352,2.235,2.2348,2.2415,2.2419,2.2423,0,0,0,0,0,0,0,0,0,0,0,0,0,2.2229,2.2164,2.2324,2.2315,2.2315,2.2391,2.2393,2.2394,2.2355,2.2352,2.2349,2.2347,2.2413,2.2418,2.2424,2.2513,0,0,2.244,2.2442,0,0,0,0,0,0,0,0,2.2225,2.2235,2.2315,2.2316,2.2316,2.2362,2.2359,2.2434,2.2356,2.234,2.2349,2.2345,2.24,2.2406,2.2425,2.2516,2.2519,2.244,2.2444,2.2446,2.2447,0,0,0,0,0,0,0,2.222,2.2232,2.2351,2.2317,2.2317,2.2306,2.2313,2.2373,2.2385,2.2341,2.2338,2.2347,2.2399,2.242,2.2426,2.252,2.244,2.2445,2.2448,2.245,2.2684,2.2687,0,0,0,0,0,0,2.2217,2.2228,2.2349,2.2353,2.2263,2.2311,2.2319,2.235,2.2384,2.2387,2.2349,2.2345,2.2412,2.242,2.2428,2.2532,2.2446,2.2451,2.2454,2.2681,2.2685,2.2688,0,0,0,0,0,0,2.2213,2.2228,2.2346,2.229,2.2304,2.2317,2.2352,2.2353,2.2373,2.239,2.2392,2.2368,2.241,2.2421,2.2492,2.2534,2.2453,2.2458,2.2678,2.2682,2.2687,2.2743,0,0,0,0,0,0,2.2209,2.2227,2.2262,2.2291,2.2307,2.241,2.2355,2.2356,2.2382,2.2377,2.2409,2.2411,2.2409,2.2484,2.2497,2.254,2.2462,2.2674,2.268,2.2685,2.2738,2.2749,2.2759,0,0,0,0,0,2.2203,2.2276,2.2264,2.2279,2.2352,2.2412,2.2421,2.2418,2.2386,2.2421,2.2431,2.241,2.2528,2.2491,2.2506,2.2551,2.2671,2.2678,2.2685,2.2733,2.2747,2.2759,0,0,0,0,0,0,2.2251,2.2279,2.2267,2.2351,2.238,2.2405,2.2449,2.2434,2.2471,2.2465,2.2458,2.2466,2.2539,2.2553,2.2511,2.2638,2.2594,2.2604,2.2626,2.264,2.265,2.2644,2.2467,0,0,0,0,0,2.2272,2.2319,2.2341,2.2413,2.2428,2.2436,2.2463,2.2457,2.2486,2.2498,2.2514,2.2542,2.2585,2.2613,2.2654,2.274,2.2744,2.2778,2.2789,2.2798,2.2806,2.2848,2.2863,2.2711,2.2711,2.271,0,0,2.2314,2.2336,2.2366,2.2424,2.2445,2.2492,2.2447,2.25,2.2534,2.2506,2.2572,2.2585,2.2616,2.2694,2.2729,2.2707,2.2849,2.2806,2.2813,2.2816,2.2857,2.2871,2.2884,2.2715,2.2714,2.2714,0,0,2.2416,2.2438,2.2499,2.2521,2.2554,2.2559,2.2573,2.2601,2.2608,2.2676,2.2654,2.2695,2.277,2.2792,2.2813,2.292,2.2901,2.2934,2.2989,2.3031,2.3043,2.3054,2.3089,2.3102,2.2942,2.2943,2.2943,0,2.2465,2.2537,2.2533,2.2587,2.2611,2.2588,2.2648,2.2669,2.2714,2.273,2.2706,2.2798,2.2818,2.2898,2.2924,2.2943,2.2957,2.293,2.3042,2.3052,2.3062,2.3096,2.3109,2.2946,2.2946,2.2945,2.2945,0,2.2593,2.2643,2.2689,2.2731,2.2761,2.2818,2.2821,2.2852,2.2844,2.285,2.2917,2.294,2.2983,2.3002,2.2996,2.3081,2.3067,2.3043,2.2998,2.308,2.3111,2.3124,2.2951,2.295,2.2949,2.2948,0,0,2.2727,2.2765,2.2782,2.2799,2.2833,2.2871,2.2926,2.2968,2.2993,2.3025,2.3068,2.3132,2.3109,2.3133,2.3128,2.3165,2.3244,2.3136,2.3136,2.3152,2.3336,2.3352,2.3367,2.3233,2.3235,2.3237,2.3333,0,2.2828,2.2925,2.2922,2.3011,2.3055,2.3032,2.3079,2.3104,2.3112,2.3149,2.3157,2.3201,2.3169,2.3182,2.3218,2.3227,2.3281,2.3221,2.3271,2.3273,2.3261,2.3384,2.3402,2.3491,2.3345,2.3347,2.3349,0,2.2959,2.2994,2.3087,2.3111,2.313,2.3172,2.3209,2.3247,2.3273,2.3276,2.3301,2.329,2.3343,2.3299,2.3371,2.333,2.3351,2.3358,2.3362,2.3364,2.3314,2.3387,2.352,2.3532,2.3369,2.3367,2.3366,0,2.3043,2.3114,2.3177,2.3194,2.3224,2.3254,2.3268,2.3292,2.3317,2.3349,2.3365,2.3403,2.3424,2.3453,2.3451,2.342,2.3523,2.348,2.3524,2.3524,2.3545,2.3543,2.368,2.3563,2.3563,2.3563,2.3563,0,2.3155,2.3213,2.3215,2.3254,2.3317,2.3312,2.3374,2.3385,2.3406,2.3445,2.3428,2.3465,2.3462,2.3499,2.3499,2.3556,2.3567,2.3568,2.3567,2.3568,2.3568,2.358,2.3572,2.3567,2.3566,2.3565,2.3564,0,2.3259,2.3264,2.3331,2.3354,2.3361,2.3406,2.3425,2.3461,2.3466,2.3516,2.3527,2.3536,2.3578,2.358,2.3629,2.3628,2.3697,2.3691,2.3688,2.3686,2.3729,2.3724,2.3876,2.3894,2.3769,2.377,2.3771,0,2.3329,2.3372,2.3399,2.3424,2.344,2.3481,2.3506,2.3503,2.3529,2.3561,2.3592,2.3633,2.3665,2.3734,2.3743,2.378,2.3772,2.3823,2.3777,2.3776,2.3769,2.3765,2.3768,2.3831,2.3832,2.3833,2.3834,0,2.3451,2.3451,2.3487,2.3524,2.3554,2.3583,2.3609,2.3631,2.363,2.366,2.3703,2.3728,2.3777,2.3817,2.3852,2.3865,2.3848,2.3849,2.386,2.3861,2.3856,2.3856,2.3709,2.3845,2.3844,2.3843,2.3842,2.3842,2.3538,2.3574,2.3598,2.3638,2.3658,2.3683,2.3717,2.3726,2.3762,2.3801,2.3797,2.3844,2.3867,2.3912,2.3928,2.3963,2.3945,2.3963,2.3967,2.3971,2.3974,2.3853,2.397,2.397,2.3969,2.3969,2.3969,0,2.3657,2.3671,2.3708,2.3745,2.3776,2.3759,2.3787,2.3814,2.3855,2.3878,2.391,2.3957,2.3995,2.4007,2.4043,2.4069,2.4062,2.4078,2.4075,2.4077,2.3989,2.3974,2.4083,2.4083,2.4083,2.4083,2.4083,2.4083,2.3722,2.3781,2.3783,2.385,2.3863,2.3909,2.3926,2.3948,2.3966,2.4019,2.4051,2.4058,2.4076,2.4113,2.4146,2.4148,2.4161,2.4179,2.4178,2.4095,2.4084,2.4073,2.4058,2.4183,2.4183,2.4263,2.4264,2.4264]},{"header":{"parameterUnit":"m.s-1","parameterCategory":1,"la1":30.2991,"la2":30.254,"lo1":-89.0895,"lo2":-89.0444,"dy":0.0017,"dx":0.0017,"nx":28,"ny":28,"refTime":"2024-07-19T21:00:00:Z","depth":0,"parameterNumber":3,"parameterNumberName":"V-component_of_WINDS"},"data":[0,0,0,0,0,0,0,0,0,0,0,0,0,0,0,0,0,0,0,0,0,0,0,0,0,0,0,0,0,0,0,0,0,0,0,0,0,0,0,0,0,0,0,0,0,0,0,0,0,0,0,0,0,0,0,0,0,0,0.4009,0.4009,0,0.4057,0.4057,0.4058,0.4069,0.4069,0.4068,0.4068,0.4119,0.412,0.4122,0,0,0,0,0,0,0,0,0,0,0,0,0,0.3926,0.3927,0.4008,0.4009,0.401,0.4056,0.4057,0.4058,0.4069,0.4069,0.4068,0.4068,0.4118,0.412,0.4122,0,0,0,0,0,0,0,0,0,0,0,0,0,0.3967,0.3928,0.4008,0.4021,0.4023,0.4056,0.4057,0.4058,0.4069,0.4069,0.4068,0.4068,0.4117,0.412,0.4122,0.4147,0,0,0.413,0.4131,0,0,0,0,0,0,0,0,0.3964,0.397,0.4019,0.402,0.4022,0.4056,0.4046,0.4088,0.4069,0.4052,0.4068,0.4068,0.4098,0.4102,0.4113,0.415,0.4152,0.413,0.4132,0.4133,0.4133,0,0,0,0,0,0,0,0.3961,0.3968,0.4028,0.4019,0.4021,0.4024,0.4029,0.4054,0.4077,0.4053,0.4054,0.4059,0.4099,0.411,0.4114,0.4153,0.413,0.4132,0.4134,0.4135,0.421,0.4211,0,0,0,0,0,0,0.3956,0.3965,0.4026,0.4029,0.3991,0.4026,0.4032,0.4046,0.4077,0.4081,0.406,0.406,0.4106,0.4111,0.4116,0.4146,0.4133,0.4135,0.4136,0.421,0.421,0.4211,0,0,0,0,0,0,0.3955,0.3962,0.4024,0.3997,0.4005,0.4028,0.4044,0.4047,0.4058,0.4082,0.4086,0.4067,0.4106,0.4112,0.4139,0.4148,0.4136,0.4138,0.4209,0.421,0.4211,0.4207,0,0,0,0,0,0,0.3952,0.3961,0.3971,0.3997,0.4007,0.4047,0.4044,0.4048,0.4062,0.4062,0.409,0.4094,0.4106,0.4135,0.4141,0.4151,0.414,0.4209,0.421,0.4211,0.4207,0.4208,0.4209,0,0,0,0,0,0.3949,0.3969,0.3972,0.3979,0.402,0.4047,0.4053,0.4066,0.4063,0.4073,0.4088,0.4093,0.4145,0.4138,0.4145,0.4155,0.4208,0.4209,0.421,0.4206,0.4208,0.4209,0,0,0,0,0,0,0.3945,0.3973,0.3976,0.4005,0.4024,0.4049,0.4063,0.4068,0.4088,0.4087,0.4103,0.4109,0.4135,0.4148,0.4138,0.418,0.4177,0.4179,0.4171,0.4173,0.4174,0.417,0.4142,0,0,0,0,0,0.3947,0.3967,0.399,0.4014,0.4022,0.4041,0.4053,0.4061,0.4082,0.409,0.4107,0.4126,0.4147,0.416,0.4181,0.4208,0.4213,0.4219,0.422,0.422,0.4223,0.4236,0.4239,0.4215,0.4215,0.4215,0,0,0.3952,0.397,0.3982,0.4013,0.4028,0.4048,0.4048,0.4069,0.4083,0.4093,0.4119,0.4132,0.4154,0.4181,0.4193,0.4192,0.423,0.4222,0.4222,0.4224,0.4238,0.424,0.4242,0.4216,0.4216,0.4215,0,0,0.3972,0.3988,0.4008,0.4022,0.4045,0.4056,0.4061,0.4085,0.4094,0.412,0.4127,0.4144,0.418,0.4195,0.4207,0.4228,0.4234,0.4235,0.4241,0.4254,0.4256,0.4257,0.4264,0.4267,0.4237,0.4237,0.4237,0,0.3976,0.4006,0.4018,0.4038,0.4051,0.4059,0.4079,0.4093,0.4121,0.413,0.4128,0.4171,0.4187,0.4216,0.4221,0.4231,0.4236,0.4232,0.4254,0.4256,0.4258,0.4265,0.4267,0.4237,0.4237,0.4237,0.4237,0,0.4009,0.4029,0.4043,0.4069,0.4083,0.4103,0.4118,0.413,0.4136,0.4148,0.4173,0.4191,0.4215,0.4222,0.4229,0.4252,0.425,0.4251,0.4248,0.426,0.4267,0.4269,0.4237,0.4237,0.4237,0.4237,0,0,0.403,0.406,0.4065,0.4075,0.4099,0.4115,0.4134,0.4156,0.4166,0.4185,0.4201,0.4229,0.4229,0.4243,0.4251,0.4263,0.4277,0.4262,0.4263,0.4264,0.4302,0.4302,0.4305,0.428,0.428,0.4281,0.43,0,0.4053,0.4088,0.4098,0.4127,0.4145,0.4151,0.4168,0.4184,0.4194,0.4211,0.4222,0.4242,0.4241,0.4249,0.426,0.4273,0.4285,0.4272,0.4295,0.4296,0.429,0.4308,0.4308,0.4326,0.4303,0.4303,0.4304,0,0.4084,0.4102,0.4132,0.4151,0.4159,0.4174,0.4194,0.421,0.4227,0.4234,0.4247,0.4254,0.4274,0.4268,0.4295,0.4285,0.4295,0.4303,0.4304,0.4307,0.4301,0.4312,0.4332,0.4334,0.4308,0.4308,0.4307,0,0.4096,0.4127,0.4149,0.4158,0.4181,0.4191,0.4201,0.4218,0.4229,0.4246,0.4253,0.4273,0.4283,0.4298,0.4309,0.4304,0.4334,0.433,0.434,0.4339,0.4347,0.4346,0.4369,0.4352,0.4352,0.4352,0.4352,0,0.412,0.4139,0.4154,0.4167,0.4188,0.4198,0.4218,0.4228,0.4242,0.4257,0.4264,0.4278,0.4291,0.4307,0.4315,0.4335,0.434,0.4346,0.4348,0.4346,0.4345,0.4353,0.4352,0.4353,0.4353,0.4353,0.4353,0,0.4137,0.4148,0.4172,0.4191,0.4196,0.421,0.4226,0.4239,0.4248,0.4267,0.4272,0.4287,0.4305,0.4317,0.4341,0.4346,0.4368,0.437,0.4362,0.4363,0.4372,0.4371,0.4401,0.4405,0.4386,0.4386,0.4386,0,0.4153,0.4167,0.4186,0.4196,0.4206,0.4222,0.4233,0.4243,0.4255,0.4274,0.4284,0.4302,0.4318,0.4347,0.4359,0.4377,0.4379,0.4388,0.4382,0.4379,0.4379,0.4378,0.4379,0.439,0.439,0.439,0.439,0,0.4178,0.4182,0.4198,0.4214,0.4227,0.4241,0.4255,0.4263,0.4275,0.4287,0.4306,0.4317,0.434,0.4358,0.4376,0.4386,0.439,0.4391,0.4395,0.4393,0.4387,0.439,0.4365,0.4391,0.4391,0.4391,0.4391,0.4391,0.4195,0.4207,0.4221,0.4238,0.4249,0.4261,0.4274,0.4283,0.4298,0.4317,0.4322,0.4341,0.4355,0.438,0.439,0.4404,0.4403,0.4408,0.4409,0.441,0.441,0.4384,0.4408,0.4408,0.4408,0.4408,0.4408,0,0.422,0.4229,0.4244,0.4262,0.4275,0.4276,0.429,0.4301,0.4317,0.433,0.4344,0.4364,0.4381,0.4394,0.441,0.4419,0.4421,0.4424,0.4423,0.4425,0.441,0.4406,0.4422,0.4422,0.4422,0.4422,0.4422,0.4422,0.4235,0.4255,0.426,0.4284,0.4293,0.4311,0.4319,0.433,0.434,0.4362,0.4375,0.4383,0.4395,0.4413,0.4427,0.4431,0.4437,0.4438,0.4442,0.4428,0.4427,0.4425,0.4421,0.444,0.444,0.4456,0.4456,0.4456]}]]